Find STARLINK-37467

NORAD ID: 68855 Int'l Des: 2026-094S Owner: SPXS Country: US Constellation: starlink operational
LEOCIRCULARRETROGRADE

現在のビュー

3D地球を読み込み中...

About STARLINK-37467

STARLINK-37467 (NORAD 68855) is a starlink constellation satellite (v2 mini) launched Apr 26, 2026 by SPXS of US. It operates in LEO, CIRCULAR, RETROGRADE orbit with a mass of 575.00 kg.

STARLINK-37467について

説明を読み込み中...

次回通過

Passes for default location (London). Set your location on the main map for personalized predictions.

高度履歴

Loading altitude history...

軌道要素

1 68855U 26094S 26166.94947947 .00018418 00000-0 57132-3 0 9990
2 68855 97.2826 181.4835 0001887 84.0167 276.1291 15.33450511 7865
Epoch: Jun 15, 2026 • Age: 9 hours

現在のステータス

高度 494.6 km
速度 7.62 km/s
衛星直下点 -78.19°S, 162.8°W
打ち上げ日 Apr 26, 2026
運用期間 0.1 years
タイプ internet

技術仕様

分類 Payload
質量 575.00 kg
乾燥質量 530.00 kg
総質量 575.00 kg
長さ 0.30 m
直径 4.10 m
スパン 29.00 m
形状 Box + pan
製造者 SPXS
バスタイプ Starlink V2MO
フェーズステータス In Orbit
所有者/国 SPXS/US

Most Searched